Flag for U.S.A. Weather past 2 weeks in Savannah, Georgia, U.S.A.

Now
61 °F

Sunny.


Feels Like: 61 °F
Forecast: 45 / 59 °F
Wind: 14 mph from Northwest

Location: Hunter U. S. Army Airfield

Current Time: Mar 27, 2015 at 8:38:05 PM

Latest Report: Mar 27, 2015 at 7:58 PM


Visibility: 10 mi

Pressure: 29.75 "Hg

Humidity: 50%

Dew point: 42 °F

Location of SavannahLocation

Historic Weather in Savannah — Graph

°F

Savannah temperature yesterday

Maximum temperature yesterday: 77 °F (at 12:58 PM)
Minimum temperature yesterday: 59 °F (at 4:58 AM)
Average temperature yesterday: 66 °F

Past Weeks' High & Low Weather Summary

 TemperatureHumidityPressure
High87 °F (Mar 17, 3:58 PM)100% (Mar 13, 10:55 AM)30.37 "Hg (Mar 13, 10:55 AM)
Low49 °F (Mar 16, 7:58 AM)29% (Mar 17, 3:58 PM)29.66 "Hg (Mar 27, 2:58 PM)
Average64 °F86%30.05 "Hg
* Reported Mar 12 6:58 PM — Mar 27 6:58 PM, Savannah, Weather by CustomWeather, © 2015

Note: Actual official high and low records may vary slightly from our data, if they occured in-between our weather recording intervals... More about our weather records

Advertising

Savannah weather history for previous 24 hours

 ConditionsComfort  
Time TempWeatherWind HumidityBarometerVisibility
6:58 PM
Fri, Mar 27
63 °FPassing clouds.12 mph67%29.72 "Hg10 mi
6:00 PM64 °FSunny.15 mph64%29.68 "Hg10 mi
5:58 PM65 °FSunny.16 mph64%29.68 "Hg10 mi
4:58 PM66 °FSunny.17 mph77%29.68 "Hg10 mi
3:58 PM67 °FScattered clouds.15 mph98%29.66 "Hg10 mi
3:04 PM70 °FThunderstorms. Broken clouds.18 mph78%29.66 "Hg7 mi
2:58 PM73 °FBroken clouds.16 mph70%29.66 "Hg10 mi
1:58 PM73 °FBroken clouds.16 mph71%29.68 "Hg10 mi
12:58 PM72 °FPartly sunny.13 mph74%29.71 "Hg10 mi
11:58 AM72 °FMostly cloudy.9 mph78%29.72 "Hg10 mi
10:58 AM71 °FPartly sunny.12 mph78%29.74 "Hg10 mi
9:58 AM67 °FPartly sunny.13 mph90%29.75 "Hg10 mi
8:58 AM65 °FPassing clouds.9 mph95%29.75 "Hg10 mi
7:58 AM62 °FPassing clouds.9 mph100%29.74 "Hg10 mi
7:03 AM63 °FPassing clouds.9 mph100%29.73 "Hg10 mi
6:58 AM63 °FPassing clouds.8 mph100%29.73 "Hg10 mi
5:58 AM64 °FOvercast.10 mph100%29.73 "Hg10 mi
4:58 AM64 °FPassing clouds.10 mph100%29.73 "Hg10 mi
4:48 AM64 °FMostly cloudy.8 mph100%29.73 "Hg10 mi
3:58 AM65 °FClear.9 mph100%29.73 "Hg10 mi
2:58 AM65 °FPassing clouds.5 mph100%29.75 "Hg10 mi
2:04 AM64 °FPassing clouds.7 mph100%29.77 "Hg9 mi
12:58 AM65 °FClear.7 mph100%29.80 "Hg10 mi
12:57 AM64 °FClear.6 mph100%29.79 "Hg10 mi
12:04 AM66 °FLight rain. Passing clouds.5 mph100%29.81 "Hg8 mi
10:58 PM
Thu, Mar 26
66 °FPassing clouds.8 mph99%29.80 "Hg10 mi
9:58 PM66 °FPassing clouds.8 mph92%29.82 "Hg10 mi
8:58 PM67 °FClear.6 mph86%29.82 "Hg10 mi
Weather by CustomWeather, © 2015

See weather overviewHow to use our weather pages